Stations météo

Publicité
Perpignan, France (7747): Température de l'air & dewpoint: 15.10.2017 10:00:00 - 21.10.2017 10:00:00 (CEST)Perpignan, France (7747): Température de l'air 5cm: 15.10.2017 10:00:00 - 21.10.2017 10:00:00 (CEST)Perpignan, France (7747): Température de l'air -20cm & Température de l'air -100cm: 15.10.2017 10:00:00 - 21.10.2017 10:00:00 (CEST)Perpignan, France (7747): Vitesse du vent & gusts: 15.10.2017 10:00:00 - 21.10.2017 10:00:00 (CEST)Perpignan, France (7747): Direction du vent: 15.10.2017 10:00:00 - 21.10.2017 10:00:00 (CEST)Perpignan, France (7747): reduced air pressure: 15.10.2017 10:00:00 - 21.10.2017 10:00:00 (CEST)Perpignan, France (7747): visibility: 15.10.2017 10:00:00 - 21.10.2017 10:00:00 (CEST)Perpignan, France (7747): Ensoleillement: 15.10.2017 10:00:00 - 21.10.2017 10:00:00 (CEST)Perpignan, France (7747): Quantités de précipitations: 15.10.2017 10:00:00 - 21.10.2017 10:00:00 (CEST)
Date & Time tt [°C] td [°C] tt 5cm [°C] tt -20cm [°C] tt -100cm [°C] ff [km/h] ff [knt] fx [km/h] fx [knt] dd ppp [hPa] vv [km] sd [min] rr [mm]
21.10.2017 10:00:00 18,0 16,3 - - - 5 3 13 7 - 1020,7 10 - 0,0
21.10.2017 09:00:00 15,6 15,0 12,8 19,6 21,4 5 3 9 5 WSW 1020,3 10 26 0,0
21.10.2017 08:00:00 15,0 14,5 12,3 19,7 21,4 8 4 11 6 WNW 1019,7 10 0 0,0
21.10.2017 07:00:00 13,5 12,9 11,5 19,9 21,4 8 4 9 5 SW 1019,2 9 0 0,0
21.10.2017 06:00:00 14,2 13,6 11,5 20,0 21,4 5 3 7 4 SW 1018,3 7 0 0,0
21.10.2017 05:00:00 14,0 13,2 11,8 20,2 21,4 0 0 5 3 N 1018,2 9 0 0,0
21.10.2017 04:00:00 14,8 13,8 12,8 20,3 21,4 0 0 7 4 N 1018,3 7 0 0,0
21.10.2017 03:00:00 15,7 14,7 13,8 20,5 21,4 5 3 11 6 WNW 1018,6 8 0 0,0
21.10.2017 02:00:00 16,4 15,4 15,9 20,6 21,4 8 4 11 6 NNW 1018,8 8 0 0,0
21.10.2017 01:00:00 16,8 15,8 16,3 20,7 21,4 8 4 14 7 N 1019,0 7 0 0,0
21.10.2017 00:00:00 17,3 16,2 16,5 20,8 21,4 8 4 11 6 N 1019,1 6 0 0,0
20.10.2017 23:00:00 17,8 16,3 16,9 20,9 21,4 5 3 8 4 N 1019,5 9 0 0,0
20.10.2017 22:00:00 18,3 16,8 18,1 20,9 21,4 4 2 11 6 - 1019,6 10 0 0,0
20.10.2017 21:00:00 18,6 17,1 18,4 21,0 21,4 5 3 13 7 ENE 1019,3 8 0 0,0
20.10.2017 20:00:00 18,7 16,8 18,5 21,0 21,4 8 4 12 7 NNE 1019,5 10 0 0,0
20.10.2017 19:00:00 19,2 16,6 19,1 21,0 21,4 9 5 16 8 E 1018,6 10 0 0,0
20.10.2017 18:00:00 19,9 16,3 20,5 20,9 21,4 11 6 16 9 E 1018,5 10 0 0,0
20.10.2017 17:00:00 20,8 16,2 21,9 20,7 21,4 13 7 18 10 E 1018,5 20 15 0,0
20.10.2017 16:00:00 21,9 15,7 24,4 20,5 21,4 13 7 24 13 E 1018,2 10 60 0,0
20.10.2017 15:00:00 22,4 16,0 23,5 20,2 21,5 13 7 22 12 ENE 1018,3 10 47 0,0
20.10.2017 14:00:00 21,3 16,7 23,4 19,9 21,5 15 8 20 11 E 1018,4 10 42 0,0
20.10.2017 13:00:00 22,2 15,8 24,6 19,6 21,4 4 2 10 5 - 1018,8 10 53 0,0
20.10.2017 12:00:00 21,0 15,5 21,0 19,5 21,5 2 1 7 4 - 1018,8 10 51 0,0
20.10.2017 11:00:00 18,3 14,8 18,5 19,4 21,5 0 0 8 4 N 1018,6 10 0 0,0
20.10.2017 10:00:00 17,5 14,9 16,9 19,5 21,5 8 4 12 7 WSW 1018,1 10 0 0,0
20.10.2017 09:00:00 16,4 14,8 16,2 19,5 21,5 5 3 9 5 WSW 1017,6 10 0 0,0
20.10.2017 08:00:00 16,4 14,8 16,2 19,5 21,5 5 3 9 5 W 1016,7 55 0 0,0
20.10.2017 07:00:00 16,9 15,4 16,7 19,5 21,5 5 3 9 5 WNW 1016,1 10 0 0,0
20.10.2017 06:00:00 16,9 15,2 16,0 19,6 21,5 6 4 10 6 NNW 1015,5 33 0 0,0
20.10.2017 05:00:00 16,8 15,0 16,3 19,7 21,5 5 3 14 8 - 1015,2 10 0 0,0
20.10.2017 04:00:00 16,7 14,9 16,1 19,7 21,5 11 6 18 10 NNW 1014,8 10 0 0,0
20.10.2017 03:00:00 16,8 14,8 16,3 19,8 21,6 11 6 22 12 NNW 1014,7 10 0 0,0
20.10.2017 02:00:00 16,4 14,8 16,0 19,8 21,5 13 7 26 14 NW 1014,1 10 0 0,0
20.10.2017 01:00:00 16,6 15,0 16,1 19,9 21,5 14 8 25 13 NW 1013,7 52 0 0,0
20.10.2017 00:00:00 16,6 15,5 16,1 20,0 21,6 13 7 23 13 NW 1013,2 10 0 0,6
19.10.2017 23:00:00 16,6 15,6 16,2 20,1 21,7 9 5 18 10 NW 1013,2 10 0 0,0
19.10.2017 22:00:00 16,4 15,8 16,0 20,3 21,6 11 6 18 10 NW 1013,1 10 0 10,3
19.10.2017 21:00:00 16,4 15,8 16,2 20,6 21,7 13 7 21 11 NE 1012,6 2,9 0 20,8
19.10.2017 20:00:00 17,3 16,5 16,8 20,6 21,7 13 7 27 15 NNE 1012,2 10 0 0,8
19.10.2017 19:00:00 19,0 16,8 18,9 20,6 21,7 11 6 18 10 N 1010,6 10 0 0,0
19.10.2017 18:00:00 19,3 16,1 19,3 20,5 21,7 9 5 17 9 E 1010,9 10 0 0,0
19.10.2017 17:00:00 19,7 15,6 19,9 20,2 21,7 13 7 24 13 ESE 1010,5 10 15 0,0
19.10.2017 16:00:00 20,2 17,2 19,0 20,1 21,7 12 6 19 11 ESE 1010,5 5 25 0,0
19.10.2017 15:00:00 18,4 17,1 18,2 20,0 21,7 3 2 9 5 E 1011,1 40 0 0,4
19.10.2017 14:00:00 17,7 16,7 17,3 20,0 21,7 8 4 13 7 ESE 1011,6 7 1 7,5
19.10.2017 13:00:00 17,9 16,6 17,5 19,9 21,7 8 4 15 8 SE 1012,2 7 0 1,4
19.10.2017 12:00:00 18,7 16,7 18,6 19,9 21,7 9 5 16 8 ESE 1012,4 10 0 0,0
19.10.2017 11:00:00 17,7 16,2 17,1 19,9 21,7 5 3 11 6 E 1012,2 10 0 0,0
19.10.2017 10:00:00 16,8 16,0 16,4 20,0 21,7 8 4 20 11 ENE 1011,8 10 0 0,0
19.10.2017 09:00:00 16,5 15,9 15,9 20,1 21,7 13 7 21 11 E 1011,7 10 0 0,2
19.10.2017 08:00:00 16,0 15,4 15,8 20,2 21,7 11 6 16 9 NE 1011,0 10 0 2,4
19.10.2017 07:00:00 16,3 15,5 15,6 20,4 21,7 5 3 11 6 N 1011,2 5 0 1,6
19.10.2017 06:00:00 16,0 15,2 15,5 20,6 21,7 8 4 14 8 NNE 1010,8 18 0 2,9
19.10.2017 05:00:00 16,1 15,0 15,3 20,7 21,7 13 7 19 10 E 1011,3 9 0 3,0
19.10.2017 04:00:00 16,0 14,5 15,3 20,9 21,7 13 7 23 13 SSW 1010,9 10 0 2,8
19.10.2017 03:00:00 16,5 15,0 15,6 21,0 21,7 5 3 35 19 - 1011,5 5 0 4,2
19.10.2017 02:00:00 17,6 14,5 16,4 21,1 21,7 8 4 20 11 - 1011,3 10 0 0,0
19.10.2017 01:00:00 17,8 15,1 16,6 21,2 21,7 8 4 16 8 NNE 1011,2 10 0 0,0
19.10.2017 00:00:00 17,7 15,7 16,0 21,2 21,7 4 2 19 11 - 1011,3 10 0 0,0
18.10.2017 23:00:00 18,3 13,8 15,8 21,3 21,7 15 8 45 25 SSE 1012,2 10 0 0,4
18.10.2017 22:00:00 20,2 16,0 18,9 21,4 21,7 16 9 27 14 SSE 1012,2 10 0 0,0
18.10.2017 21:00:00 19,6 17,0 19,3 21,4 21,7 21 11 27 15 ESE 1011,8 10 0 0,0
18.10.2017 20:00:00 19,9 17,1 19,7 21,4 21,7 15 8 32 18 ESE 1011,7 10 0 0,0
18.10.2017 19:00:00 20,4 17,4 20,2 21,3 21,7 22 12 36 20 SE 1010,9 10 0 0,0
18.10.2017 18:00:00 20,8 17,4 21,0 21,2 21,7 18 10 35 19 E 1010,6 10 0 0,0
18.10.2017 17:00:00 22,6 16,6 21,9 21,0 21,7 22 12 39 21 SE 1010,9 10 1 0,0
18.10.2017 16:00:00 21,9 16,6 21,9 20,7 21,7 24 13 42 23 SE 1011,0 10 23 0,0
18.10.2017 15:00:00 26,1 15,5 28,0 20,4 21,7 31 17 55 30 SE 1011,2 10 60 0,0
18.10.2017 14:00:00 26,0 13,1 26,1 20,2 21,7 37 20 53 29 SSE 1011,5 10 44 0,0
18.10.2017 13:00:00 24,4 13,0 26,2 20,0 21,7 13 7 23 13 SSE 1012,7 10 22 0,0
18.10.2017 12:00:00 23,1 13,6 25,0 19,9 21,7 2 1 14 7 - 1013,7 10 60 0,0
18.10.2017 11:00:00 19,9 14,5 17,9 20,0 21,7 9 5 13 7 NNE 1014,3 10 38 0,0
18.10.2017 10:00:00 17,2 14,3 15,5 20,1 21,7 9 5 15 8 N 1014,7 10 17 0,0
18.10.2017 09:00:00 15,4 13,6 13,9 20,2 21,7 9 5 17 9 NNW 1014,8 10 0 0,0
18.10.2017 08:00:00 14,2 12,8 13,4 20,3 21,7 11 6 16 9 N 1015,0 10 0 0,0
18.10.2017 07:00:00 15,9 13,4 15,1 20,4 21,7 5 3 15 8 - 1015,0 10 0 0,0
18.10.2017 06:00:00 16,3 14,0 14,9 20,5 21,7 9 5 16 8 NW 1015,3 10 0 0,0
18.10.2017 05:00:00 16,0 14,2 15,0 20,6 21,7 11 6 17 9 NW 1015,5 10 0 0,0
18.10.2017 04:00:00 16,1 14,5 13,5 20,8 21,7 13 7 20 11 NW 1016,2 10 0 0,0
18.10.2017 03:00:00 15,6 14,0 12,2 20,9 21,7 9 5 14 8 NNW 1016,7 16 0 0,0
18.10.2017 02:00:00 15,9 14,3 14,0 21,1 21,7 5 3 14 8 WNW 1017,3 10 0 0,0
18.10.2017 01:00:00 16,5 14,9 14,0 21,2 21,7 9 5 14 7 NNW 1017,7 10 0 0,0
18.10.2017 00:00:00 15,7 14,1 12,6 21,3 21,7 5 3 14 7 WNW 1018,1 10 0 0,0
17.10.2017 23:00:00 16,5 14,7 15,7 21,4 21,7 11 6 14 7 N 1018,1 10 0 0,0
17.10.2017 22:00:00 17,1 15,3 16,2 21,5 21,7 9 5 12 7 N 1018,1 10 0 0,0
17.10.2017 21:00:00 18,4 14,7 17,0 21,6 21,7 5 3 17 9 - 1018,1 10 0 0,0
17.10.2017 20:00:00 19,2 15,5 18,5 21,6 21,7 13 7 25 13 ESE 1018,3 10 0 0,0
17.10.2017 19:00:00 20,0 15,4 19,6 21,5 21,7 16 9 30 16 ESE 1018,2 10 40 0,0
17.10.2017 18:00:00 21,4 15,9 22,3 21,4 21,8 22 12 44 24 ESE 1018,1 10 60 0,0
17.10.2017 17:00:00 22,6 15,9 24,9 21,2 21,7 28 15 47 25 ESE 1018,6 10 60 0,0
17.10.2017 16:00:00 22,7 16,5 24,4 20,9 21,7 29 16 48 26 ESE 1019,0 10 60 0,0
17.10.2017 15:00:00 22,7 16,3 24,7 20,6 21,7 29 16 47 25 ESE 1019,9 10 60 0,0
17.10.2017 14:00:00 22,8 16,6 26,0 20,4 21,7 29 16 47 26 ESE 1021,0 10 60 0,0
17.10.2017 13:00:00 22,4 16,2 24,4 20,2 21,7 29 16 41 22 E 1022,1 10 60 0,0
17.10.2017 12:00:00 21,8 15,9 24,0 20,1 21,7 28 15 40 22 ESE 1022,7 10 60 0,0
17.10.2017 11:00:00 20,5 16,1 21,5 20,2 21,7 22 12 34 18 ESE 1023,3 10 60 0,0
17.10.2017 10:00:00 18,3 16,6 18,1 20,3 21,7 15 8 22 12 SE 1023,5 10 60 0,0
17.10.2017 09:00:00 15,9 15,4 12,8 20,5 21,7 0 0 11 6 N 1023,5 6 29 0,2
17.10.2017 08:00:00 14,5 14,0 10,6 20,6 21,7 5 3 11 6 E 1023,4 4,4 0 0,0
17.10.2017 07:00:00 14,1 13,5 9,3 20,8 21,7 2 1 8 4 N 1023,5 5 0 0,0
17.10.2017 06:00:00 14,6 14,0 12,0 21,0 21,7 4 2 9 5 E 1023,6 5 0 0,0
17.10.2017 05:00:00 14,9 14,3 14,0 21,1 21,7 8 4 11 6 N 1023,6 4,0 0 0,2
17.10.2017 04:00:00 14,7 13,9 12,8 21,3 21,7 8 4 10 5 N 1024,0 5 0 0,0
17.10.2017 03:00:00 15,3 14,5 11,7 21,4 21,7 4 2 10 5 - 1024,6 4,3 0 0,0
17.10.2017 02:00:00 15,5 14,7 14,6 21,6 21,7 8 4 12 6 N 1024,9 5 0 0,0
17.10.2017 01:00:00 15,8 14,8 14,8 21,8 21,7 8 4 16 9 NNE 1025,3 6 0 0,0
17.10.2017 00:00:00 17,1 15,6 16,5 21,9 21,7 11 6 16 9 NNW 1025,4 10 0 0,0
16.10.2017 23:00:00 17,1 15,8 16,6 22,0 21,7 11 6 16 9 NNW 1025,5 9 0 0,0
16.10.2017 22:00:00 17,5 15,8 16,8 22,1 21,7 9 5 13 7 NNW 1025,3 10 0 0,0
16.10.2017 21:00:00 18,0 15,8 17,3 22,2 21,7 9 5 17 9 N 1025,2 10 0 0,0
16.10.2017 20:00:00 18,6 15,8 18,1 22,2 21,7 15 8 19 10 N 1025,0 10 0 0,0
16.10.2017 19:00:00 19,5 15,8 19,3 22,1 21,7 13 7 25 13 NE 1025,0 10 30 0,0
16.10.2017 18:00:00 21,4 15,9 23,0 21,9 21,7 16 9 36 19 ENE 1025,1 10 60 0,0
16.10.2017 17:00:00 22,4 16,2 24,9 21,6 21,7 22 12 38 20 E 1025,0 10 60 0,0
16.10.2017 16:00:00 23,6 15,9 26,9 21,3 21,7 26 14 35 19 E 1024,7 10 60 0,0
16.10.2017 15:00:00 24,9 15,8 28,1 20,9 21,7 18 10 28 15 E 1024,9 10 60 0,0
16.10.2017 14:00:00 24,4 15,3 29,6 20,6 21,7 15 8 24 13 ENE 1025,3 10 60 0,0
16.10.2017 13:00:00 23,9 14,0 29,6 20,4 21,7 5 3 16 8 - 1025,9 10 60 0,0
16.10.2017 12:00:00 22,5 14,6 27,2 20,2 21,7 8 4 14 7 N 1026,1 10 60 0,0
16.10.2017 11:00:00 20,5 16,5 21,9 20,3 21,7 8 4 13 7 N 1026,2 10 60 0,0
16.10.2017 10:00:00 18,1 17,1 17,2 20,4 21,7 9 5 17 9 N 1026,0 10 44 0,0
16.10.2017 09:00:00 16,4 15,9 10,7 20,5 21,7 11 6 14 8 NNW 1025,3 5 28 0,0
16.10.2017 08:00:00 13,9 13,1 11,2 20,7 21,7 5 3 10 6 W 1025,0 4,6 0 0,2
16.10.2017 07:00:00 14,6 13,8 12,7 20,8 21,7 9 5 11 6 W 1024,9 7 0 0,0
16.10.2017 06:00:00 16,0 15,0 14,0 21,0 21,7 5 3 14 8 NNW 1024,8 8 0 0,0
16.10.2017 05:00:00 14,7 13,6 12,1 21,2 21,7 9 5 12 7 NNW 1024,5 6 0 0,0
16.10.2017 04:00:00 15,5 14,2 12,4 21,3 21,7 4 2 12 6 - 1024,8 7 0 0,0
16.10.2017 03:00:00 16,1 15,1 14,7 21,4 21,7 9 5 13 7 N 1025,0 10 0 0,0
16.10.2017 02:00:00 17,0 15,3 15,2 21,5 21,7 9 5 15 8 NNW 1025,2 10 0 0,0
16.10.2017 01:00:00 17,4 15,4 16,9 21,6 21,7 9 5 21 12 NNW 1025,3 13 0 0,0
16.10.2017 00:00:00 18,3 16,6 17,5 21,8 21,7 16 9 21 11 NNW 1025,4 10 0 0,0
15.10.2017 23:00:00 18,3 16,8 17,5 21,9 21,8 11 6 18 10 NNW 1025,6 10 0 0,0
15.10.2017 22:00:00 18,5 16,8 17,8 22,0 21,8 13 7 21 11 N 1025,3 10 0 0,0
15.10.2017 21:00:00 18,9 17,0 18,4 22,1 21,8 11 6 19 10 NNW 1025,4 10 0 0,0
15.10.2017 20:00:00 19,6 17,2 19,1 22,0 21,7 11 6 23 12 N 1025,3 10 0 0,0
15.10.2017 19:00:00 21,0 17,0 20,8 21,9 21,8 16 9 26 14 N 1024,7 10 34 0,0
15.10.2017 18:00:00 22,7 17,2 23,7 21,7 21,8 21 11 30 16 ESE 1024,4 10 60 0,0
15.10.2017 17:00:00 23,4 17,4 25,9 21,4 21,7 22 12 37 20 ESE 1024,7 10 60 0,0
15.10.2017 16:00:00 24,5 17,5 26,9 21,1 21,8 21 11 30 16 E 1025,0 10 60 0,0
15.10.2017 15:00:00 24,8 16,5 27,8 20,7 21,8 15 8 22 12 E 1025,3 10 60 0,0
15.10.2017 14:00:00 24,9 15,5 30,3 20,4 21,7 5 3 16 9 E 1026,1 10 60 0,0
15.10.2017 13:00:00 22,7 15,8 28,8 20,1 21,8 9 5 16 9 ENE 1026,9 10 60 0,0
15.10.2017 12:00:00 21,0 16,4 24,4 20,0 21,7 8 4 16 9 NE 1027,3 10 58 0,0
15.10.2017 11:00:00 18,9 16,5 20,4 20,0 21,8 5 3 13 7 - 1027,4 10 33 0,0
15.10.2017 10:00:00 17,8 16,8 17,2 20,1 21,8 8 4 11 6 NNW 1027,3 10 8 0,0

tt = Température de l'air
td = dewpoint
tt 5cm = Température de l'air 5cm
tt -20cm = Température de l'air -20cm
tt -100cm = Température de l'air -100cm
ff = Vitesse du vent
fx = gusts
dd = Direction du vent
ppp = reduced air pressure
vv = visibility
sd = Ensoleillement
rr = Quantités de précipitations

stations d'obs. à proximité